Regional Weather Roundup
Issued by NWS Wakefield, VA

Home | Current Version | Previous Version | Text Only | Print | Product List | Glossary Off
Versions: 1 2 3 4 5 6 7 8 9 10 11 12 13 14 15 16 17 18 19 20 21 22 23 24 25 26 27 28 29 30 31 32 33 34 35 36 37 38 39 40 41 42 43 44 45 46 47 48 49 50

000
ASUS41 KAKQ 252310
RWRAKQ

REGIONAL WEATHER ROUNDUP
NATIONAL WEATHER SERVICE WAKEFIELD VA
600 PM EST TUE NOV 25 2014

Note: "fair" indicates few or no clouds below 12,000 feet with no
significant weather and/or obstructions to visibility. * = Denotes
station may not report precipitation (e.g., rain,snow,etc.),
thunder or fog.

VAZ042-051-052>054-056-260000-
NORTHERN VIRGINIA

CITY           SKY/WX    TMP DP  RH WIND       PRES   REMARKS
WASH NATIONAL  CLOUDY    53  34  48 S7        30.09R
DULLES         MOCLDY    46  35  65 CALM      30.08R
FORT BELVOIR   CLOUDY    48  36  62 CALM      30.10R
QUANTICO       CLOUDY    51  36  56 W3        30.10R
FREDERICKSBRG* CLOUDY    52  39  61 CALM      30.08R
STAFFORD*      CLOUDY    50  34  54 CALM      30.13R
WARRENTON      CLOUDY    45  43  91 CALM      30.07R
CULPEPER*      MOCLDY    46  41  81 CALM      30.08R
MANASSAS*      CLEAR     46  41  81 CALM      30.08R
LEESBURG*      PTCLDY    48  34  57 MISG      30.09R
WINCHESTER     CLEAR     45  25  45 CALM      30.07R
FRONT ROYAL*   MOCLDY    46  28  49 CALM      30.06R
LURAY*         MOCLDY    46  34  61 SE3       30.06R
$$

VAZ048-049-060>072-079>083-260000-
CENTRAL AND SOUTH CENTRAL VIRGINIA

CITY           SKY/WX    TMP DP  RH WIND       PRES   REMARKS
RICHMOND       CLOUDY    54  41  61 E5        30.09R
CHESTERFIELD*  CLOUDY    55  36  47 SE3       30.10R
PETERSBURG*    CLOUDY    54  45  71 E3        30.08S
HANOVER        CLOUDY    51  44  77 CALM      30.10R
TAPPAHANNOCK*  CLOUDY    51  39  65 CALM      30.10R
QUINTON*       CLOUDY    52  42  66 E3        30.08R
CHARLOTTSVILLE MOCLDY    52  27  38 S3        30.06R
GORDONSVILLE*  MOCLDY    47  37  67 CALM      30.08R
ORANGE*        CLOUDY    46  37  71 CALM      30.09R
LOUISA*        CLOUDY    46  39  76 CALM      30.07R
BUMPASS*       MOCLDY    51  43  73 S3        30.08R
FARMVILLE*     CLOUDY    53  37  53 CALM      30.07R
CREWE*         CLOUDY    50  42  75 CALM      30.07R
FORT PICKETT*  CLOUDY    51  41  67 CALM      30.08R
CHASE CITY*    CLOUDY    51  46  83 CALM      30.09R
CLARKSVILLE*   CLOUDY    50  41  71 CALM      30.08R
SOUTH HILL*    CLOUDY    51  48  89 CALM      30.13S
LAWRENCEVILLE* CLOUDY    53  48  83 CALM      30.07F
$$

VAZ088>098-260000-
SOUTHEAST VIRGINIA

CITY           SKY/WX    TMP DP  RH WIND       PRES   REMARKS
NORFOLK        CLOUDY    53  44  71 N5        30.10R
VIRGINIA BEACH LGT RAIN  55  48  77 N5        30.09F
NORFOLK NAVAL  CLOUDY    55  45  68 N7        30.11S
WEST POINT*    CLOUDY    53  42  66 E6        30.11R
SALUDA*        FAIR      51  38  61 CALM      30.09S
NEWPORT NEWS   CLOUDY    56  39  53 N3        30.10S
LANGLEY AFB    CLOUDY    53  43  69 N7        30.11R
FORT EUSTIS    CLOUDY    54  35  49 NE5       30.08S
WILLIAMSBURG*  CLOUDY    55  46  71 CALM      30.10R
HR EXEC AP*    CLOUDY    46  45  93 CALM      30.12R
FRANKLIN*      CLOUDY    54  48  82 E3        30.09R
WAKEFIELD      CLOUDY    54  46  74 CALM      30.09R
$$

VAZ020-022-025-037-045-260000-
WEST CENTRAL AND SOUTHWEST VIRGINIA

CITY           SKY/WX    TMP DP  RH WIND       PRES   REMARKS
STAUNTON*      MOCLDY    48  25  41 CALM      30.09R
WAYNESBORO*    MOCLDY    46  25  42 SW3       30.07R
HOT SPRINGS VA CLEAR     41  22  46 W9        30.02R
LYNCHBURG      CLOUDY    45  32  60 CALM      30.09R
DANVILLE       CLOUDY    52  38  58 E3        30.06R
SOUTH BOSTON*  CLOUDY    51  37  58 CALM      30.08R
MARTINSVILLE   CLOUDY    47  36  63 CALM      30.09S
ROANOKE        MOCLDY    51  25  36 CALM      30.09R
BLACKSBURG     PTCLDY    46  30  53 S3        30.09R
DUBLIN*        PTCLDY    47  30  51 CALM      30.08R
MARION*        MOCLDY    44  27  51 W5        30.09R
HILLSVILLE*    PTCLDY    47  23  40 CALM      30.06R
RICHLANDS*     CLEAR     49  25  38 S3        30.06R
WISE*          PTCLDY    45  21  39 N3        30.08R
ABINGDON*      PTCLDY    47  27  44 CALM      30.07R
$$

MDZ021>025-VAZ099-100-260000-
SOUTHERN MARYLAND AND THE DELMARVA PENINSULA

CITY           SKY/WX    TMP DP  RH WIND       PRES   REMARKS
PATUXENT RIVER CLOUDY    49  40  71 SE3       30.08S
BAY BRIDGE APT   N/A     46  36  66 SE3       30.09R
LEONARDTOWN    CLOUDY    48  36  61 CALM      30.10R
DOVER          CLOUDY    49  37  63 SE2       30.07R
GEORGETOWN     CLOUDY    51  38  60 CALM      30.09R
EASTON         MOCLDY    50  37  62 CALM      30.12R
CAMBRIDGE      CLOUDY    52  41  66 CALM      30.08S
SALISBURY      MOCLDY   N/A N/A N/A CALM      30.09R
OCEAN CITY     CLOUDY    52  38  58 NE3       30.10R
WALLOPS ISLAND CLOUDY    54  39  57 NE5       30.09R
ACCOMACK*      CLOUDY    52  41  66 CALM      30.07S
$$

NCZ012>017-030>032-260000-
NORTH CENTRAL AND EASTERN NORTH CAROLINA

CITY           SKY/WX    TMP DP  RH WIND       PRES   REMARKS
ROANOKE RAPIDS CLOUDY    52  48  87 CALM      30.07F
RALEIGH        LGT RAIN  54  40  59 N3        30.07F
ELIZABETH CITY LGT RAIN  57  50  77 N12       30.10R
AHOSKIE*       CLOUDY    55  52  89 N6        30.08F
EDENTON*       DRIZZLE   59  58  97 N7        30.08R
CURRITUCK*     CLOUDY    54  49  83 N7        30.09R
KILL DEVIL HLS CLOUDY    59  59  99 CALM      30.05R FOG
MANTEO         CLOUDY    58  57  97 CALM      30.05S
CAPE HATTERAS  CLOUDY    61  61 100 CALM      30.05R
TARBORO*       CLOUDY    55  53  93 CALM      30.08S
GOLDSBORO      LGT RAIN  54  54 100 CALM      30.06R
WASHINGTON     CLOUDY    57  55  94 N6        30.07S
GREENVILLE     DRIZZLE   55  54  94 CALM      30.08F
NEW BERN       CLOUDY    65  61  87 CALM      30.06R
WILMINGTON     CLOUDY    64  62  93 E5        30.03S
$$

VAZ048-260000-
ELSEWHERE

CITY           SKY/WX    TMP DP  RH WIND       PRES   REMARKS
HARRISBURG PA  MOCLDY    43  35  73 W3        30.06R
BALTIMORE      MOCLDY    48  30  49 CALM      30.07R
ANNAPOLIS      MOCLDY    49  39  68 SE3       30.08R
ANDREWS AFB    CLOUDY    48  35  58 S2        30.08R
PHILADELPHIA   MOCLDY    51  30  44 SW8       30.08R
WILDWOOD NJ*   CLOUDY    46  39  76 CALM      30.05R
HENDERSON NC   CLOUDY    51  42  71 CALM      30.09R
GREENSBORO     CLOUDY    54  38  54 E3        30.06R
ROCKY MOUNT    LGT RAIN  53  50  89 CALM      30.07S
$$

VAZ100-260000-
MARINE

STATION/POSITION TIME  TEMP    WIND        PRES    WAVE   SWELL
                       AIR SEA DIR/SP/G            HT/PER HT/PER
                 (UTC) (F)     (DEG/KT/KT) (MB)    (FT/S) (FT/S)
CAPE MAY NJ      2300   50 50   CALM  /  2 1018.1F
LEWES DE         2300   51 51  150/  1/  2 1018.5F
15NM E FENWICK I 2300   54 54              1018.2F   4/ 9
OCEAN-CITY-INLET 2300   53 51   30/  2/  3 1018.6R
WACHAPREAGUE VA  2300   53 55   60/  3/  4 1018.5F
THOMAS POINT MD  2300   50 48  150/  8/  8 1019.7R
GOOSES REEF MD   2300   50     130/  2/  4 1018.9S
COVE POINT MD    2300   51     160/  4/  4 1018.6R
SOLOMONS ISLAND  2300      50                N/A
BISHOPS HEAD MD  2300   50 49   50/  3/  4 1018.1F
PINEY POINT MD   2300          110/  6/  6   N/A
POTOMAC MD       2300   51     110/  2/  2 1017.9S
CAMBRIDGE MD     2300   51 46  120/  2/  2 1018.4S
LEWISETTA VA     2300   51 51  110/  4/  4 1018.4R
RAPPAHANNOCK LGT 2300           10/  8/  9 1018.8F
STINGRAY PT      2300   51      50/  6/  6 1019.0F
YORK RVR RNG VA  2300   53      30/  9/ 10 1017.9F
YORKTOWN VA      2300   53 51   40/  4/  5 1018.4R
JAMESTOWN VA     2300   57     110/  4/  6   N/A
DOMINION TERM VA 2300   54      30/  4/  7 1018.5R
KIPTOPEKE VA     2300      57   30/  2/  4   N/A
CHES BAY BRIDGE  2300   53 52   30/  8/  9 1017.5F
CAPE HENRY VA    2300   54      20/  8/ 10 1017.0R
CHESAPEAKE LGHT  2200   56      20/ 17/ 19 1019.2R
WILLOUBY STN VA  2300   53      20/  9/ 10 1017.4R
S CRANEY ISL VA  2300           10/  5/  6 1019.1R
CAPE HENRY BUOY  2300      56                N/A     4/ 8
1ST LANDING BUOY 2300   54      40/  8/ 10 1017.9F
CAPE CHARLES BUO 2300      55                N/A     4/ 8   3/ 8
64NM E OF VA BCH 2300   62 64  280/  6/  8 1017.6R   4/ 8   3/ 8
DUCK PIER NC     2300   56 59  360/ 14/ 15 1016.9S
44100 DUCK FRF   2300      59                N/A     4/ 9   2/11
44056 DUCK FRF   2300      58                N/A     3/ 8
OREGON INLET NC  2300   58 58   CALM  /  1 1017.6F
HATTERAS NC      2300   62 63  320/  4/  5 1017.7R
DIAMOND SHLS NC  2300   67      30/  4/  6 1017.5R   5/ 7   5/ 7
CAPE LOOKOUT NC  2200   62      50/  2/  3 1016.9R
$$



USA.gov is the U.S. government's official web portal to all federal, state and local government web resources and services.